"Pseudo-MPEC" for P11Y8AO

Created 2024 Sep 10 18:22:10 UT using Find_Orb

Click here for an explanation of pseudo-MPECs

 
 Astrometry: 
     P11Y8AO* C2024 09 05.55415001 03 41.934-10 17 59.61   ~95Iq 21.58wXNEOCPF51
     P11Y8AO  C2024 09 05.57942401 03 34.799-10 18 44.63   ~95Iq 21.29wXNEOCPF51
     P11Y8AO  C2024 09 05.59205401 03 31.260-10 19 06.68   ~95Iq 22.43wXNEOCPF51

Station data:
(F51) Pan-STARRS 1, Haleakala  (N20.707234 W156.255910)  US/Hawaii.
   Observers J. Bulger, T. Lowe, A. Schultz, M. Willman. Measurers K.
   Chambers, S. Chastel, T. de Boer, L. Denneau, J. Fairlamb, H. Flewelling,
   M. Huber, C.-C. Lin, E. Magnier, Y. Ramanjooloo, R. Wainscoat, R. Weryk.
   1.8-m Ritchey-Chrétien + CCD.

Orbital elements:  P11Y8AO
   Perihelion 2024 Jun 25.57104 +/- 106 TT = 13:42:17 (JD 2460487.07104)
Epoch 2024 Sep  6.0 TT = JDT 2460559.5   Earth MOID: 0.0597   Ju: 0.7341
M  18.43884638 +/- 80               Ve: 0.0259   Me: 0.0017   Ma: 0.0853
n   0.25457835 +/- 0.368            Peri.   86.44916 +/- 50      AutoNEOCP
a   2.46559496 +/- 2.38             Node   133.88098 +/- 70
e   0.8657573 +/- 0.223             Incl.    8.73848 +/- 60
P   3.87153                H 21.22  G  0.15   U 12.1  SR
q 0.33098807 +/- 0.541    Q 4.60020185 +/- 14.9           (J2000 ecliptic)
From 3 observations 2024 Sept. 5 (54.6 min); mean residual 0".11
Residuals in arcseconds: 
240905 F51  .05+  .06+    240905 F51  .14-  .17-    240905 F51  .09+  .12+    

Ephemerides (geocentric):
Date (UTC) HH   RA             Dec           delta  r     elong  mag " sig PA
---- --------  ------------   ------------  ------ ------ -----  --- --------
2024 09 10 18  00 41 13.909   -12 34 14.69  .56290 1.5423 157.6 21.7  37d  84
2024 09 10 19  00 41 03.791   -12 35 11.91  .56334 1.5429 157.7 21.7  37d  84
2024 09 10 20  00 40 53.684   -12 36 09.00  .56378 1.5434 157.8 21.7  37d  84
2024 09 10 21  00 40 43.589   -12 37 05.95  .56423 1.5440 157.8 21.7  37d  84
2024 09 10 22  00 40 33.505   -12 38 02.78  .56467 1.5446 157.9 21.7  37d  84
2024 09 10 23  00 40 23.433   -12 38 59.47  .56512 1.5452 157.9 21.7  37d  84
2024 09 11 00  00 40 13.372   -12 39 56.04  .56556 1.5457 158.0 21.7  38d  84
2024 09 11 01  00 40 03.322   -12 40 52.47  .56601 1.5463 158.1 21.7  38d  84
2024 09 11 02  00 39 53.284   -12 41 48.78  .56645 1.5469 158.1 21.7  38d  84
2024 09 11 03  00 39 43.257   -12 42 44.95  .56690 1.5474 158.2 21.7  38d  84
2024 09 11 04  00 39 33.242   -12 43 41.00  .56735 1.5480 158.3 21.7  38d  84
2024 09 11 05  00 39 23.238   -12 44 36.92  .56780 1.5486 158.3 21.7  38d  84
2024 09 11 06  00 39 13.246   -12 45 32.70  .56825 1.5491 158.4 21.7  38d  84
2024 09 11 07  00 39 03.265   -12 46 28.36  .56869 1.5497 158.4 21.7  38d  84
2024 09 11 08  00 38 53.296   -12 47 23.89  .56914 1.5503 158.5 21.7  38d  84
2024 09 11 09  00 38 43.338   -12 48 19.28  .56960 1.5508 158.6 21.7  39d  84
2024 09 11 10  00 38 33.391   -12 49 14.55  .57005 1.5514 158.6 21.7  39d  84
2024 09 11 11  00 38 23.456   -12 50 09.69  .57050 1.5520 158.7 21.7  39d  84
2024 09 11 12  00 38 13.533   -12 51 04.71  .57095 1.5525 158.7 21.7  39d  84
2024 09 11 13  00 38 03.621   -12 51 59.59  .57140 1.5531 158.8 21.7  39d  84
2024 09 11 14  00 37 53.721   -12 52 54.34  .57186 1.5537 158.8 21.7  40d  84
2024 09 11 15  00 37 43.832   -12 53 48.97  .57231 1.5542 158.9 21.7  40d  84
2024 09 11 16  00 37 33.955   -12 54 43.46  .57277 1.5548 159.0 21.7  40d  84
2024 09 11 17  00 37 24.089   -12 55 37.83  .57322 1.5554 159.0 21.8  40d  84
2024 09 11 18  00 37 14.234   -12 56 32.07  .57368 1.5559 159.1 21.8  40d  84
2024 09 11 19  00 37 04.392   -12 57 26.18  .57413 1.5565 159.1 21.8  40d  84
2024 09 11 20  00 36 54.561   -12 58 20.17  .57459 1.5571 159.2 21.8  41d  84
2024 09 11 21  00 36 44.741   -12 59 14.02  .57505 1.5576 159.3 21.8  41d  84
2024 09 11 22  00 36 34.933   -13 00 07.75  .57551 1.5582 159.3 21.8  41d  84
2024 09 11 23  00 36 25.136   -13 01 01.35  .57597 1.5588 159.4 21.8  41d  84
2024 09 12 00  00 36 15.351   -13 01 54.83  .57642 1.5593 159.4 21.8  41d  84
2024 09 12 01  00 36 05.578   -13 02 48.17  .57688 1.5599 159.5 21.8  41d  84
2024 09 12 02  00 35 55.816   -13 03 41.39  .57735 1.5605 159.5 21.8  41d  84
2024 09 12 03  00 35 46.066   -13 04 34.48  .57781 1.5610 159.6 21.8  42d  84
2024 09 12 04  00 35 36.327   -13 05 27.45  .57827 1.5616 159.7 21.8  42d  84
2024 09 12 05  00 35 26.600   -13 06 20.28  .57873 1.5622 159.7 21.8  42d  84
2024 09 12 06  00 35 16.884   -13 07 13.00  .57919 1.5627 159.8 21.8  42d  84
2024 09 12 07  00 35 07.180   -13 08 05.58  .57966 1.5633 159.8 21.8  42d  84
2024 09 12 08  00 34 57.488   -13 08 58.04  .58012 1.5639 159.9 21.8  42d  84
2024 09 12 09  00 34 47.807   -13 09 50.37  .58059 1.5644 159.9 21.8  42d  84
2024 09 12 10  00 34 38.138   -13 10 42.57  .58105 1.5650 160.0 21.8  42d  84
2024 09 12 11  00 34 28.481   -13 11 34.65  .58152 1.5655 160.0 21.8  42d  84
2024 09 12 12  00 34 18.835   -13 12 26.60  .58198 1.5661 160.1 21.8  42d  84
2024 09 12 13  00 34 09.200   -13 13 18.43  .58245 1.5667 160.1 21.8  42d  84
2024 09 12 14  00 33 59.578   -13 14 10.13  .58292 1.5672 160.2 21.8  42d  84
2024 09 12 15  00 33 49.967   -13 15 01.71  .58339 1.5678 160.3 21.8  43d  84
2024 09 12 16  00 33 40.367   -13 15 53.16  .58385 1.5684 160.3 21.8  43d  84
2024 09 12 17  00 33 30.779   -13 16 44.48  .58432 1.5689 160.4 21.8  43d  84